SCP
2 2 1 1 1 1 1 1 1 1 0 0 0 0 0 0 0 0 0 0 0 0 1 2 3 5 5 5 4 3 2 1 1 1 1 1 1 1 1 1 1 1 1
1 1 1 1 1 1 1 1 1 1 0 0 0 0 0 0 0 0 0 0 0 0 1 2 3 4 4 3 2 2 2 1 1 1 1 1 1 1 1 1 1 1 1
1 1 1 1 1 1 1 1 1 0 0 0 0 0 0 0 0 0 0 0 0 0 0 1 1 2 2 2 1 1 1 2 2 2 1 1 1 1 1 1 1 1 1
1 1 1 1 1 1 1 1 0 0 0 0 0 0 0 0 0 0 0 0 0 0 0 0 1 1 1 1 1 1 1 1 2 2 2 2 1 1 1 1 1 1 1
1 1 1 1 1 1 1 1 0 0 0 0 0 0 0 0 0 0 0 0 0 0 0 0 0 0 1 1 1 1 1 1 1 2 2 2 2 1 1 1 1 1 1
1 1 1 1 1 1 1 1 1 1 1 0 0 0 0 0 0 0 0 0 0 0 0 0 0 0 0 1 1 1 1 1 1 1 2 2 2 1 1 1 1 1 1
1 1 1 1 1 1 1 1 1 1 1 0 0 0 0 0 0 0 0 0 0 0 0 0 0 0 0 0 0 1 1 1 1 1 2 2 2 1 1 1 1 1 1
2 2 2 1 1 1 1 1 1 1 1 0 0 0 0 0 0 0 0 0 0 0 0 0 0 0 0 0 0 0 1 1 1 1 1 2 2 1 1 1 1 1 1
2 2 2 2 2 2 2 1 1 1 0 0 0 0 0 0 0 0 0 0 0 0 0 0 0 0 0 0 0 0 0 1 1 1 1 1 2 1 1 1 1 1 1
2 2 2 2 2 1 1 1 1 0 0 0 0 0 0 0 0 0 0 0 0 0 0 0 0 0 0 0 0 0 0 0 1 1 1 2 2 2 1 1 1 1 1
1 1 1 1 1 1 1 1 0 0 0 0 0 0 0 0 0 0 0 0 0 0 0 0 0 0 0 0 0 0 0 0 0 1 1 1 1 1 1 1 1 1 1
1 1 1 1 0 0 0 0 0 0 0 0 0 0 0 0 0 0 0 0 0 0 0 0 0 0 0 0 0 0 0 0 0 1 1 1 1 1 1 1 1 1 1
0 0 0 0 0 0 0 0 0 0 0 0 0 0 0 0 0 0 0 0 0 0 0 0 0 0 0 0 0 0 0 0 0 0 1 1 1 1 1 1 1 1 1
0 0 0 0 0 0 0 0 0 0 0 0 0 0 0 0 0 0 0 0 0 0 0 0 0 0 0 0 0 0 0 0 0 0 0 0 0 1 1 1 1 1 1
0 0 0 0 0 0 0 0 0 0 0 0 0 0 0 0 0 0 0 0 0 0 0 0 0 0 0 0 0 0 0 0 0 0 0 0 0 0 0 0 0 1 1
0 0 0 0 0 0 0 0 0 0 0 0 0 0 0 0 0 0 0 0 0 0 0 0 0 0 0 0 0 0 0 0 0 0 0 0 0 0 0 0 0 0 0
0 0 0 0 0 0 0 0 0 0 0 0 0 0 0 0 0 0 0 0 0 0 0 0 0 0 0 0 0 0 0 0 0 0 0 0 0 0 0 0 0 0 0
0 0 0 0 0 0 0 0 0 0 0 0 0 0 0 0 0 0 0 0 0 0 0 0 0 0 0 0 0 0 0 0 0 0 0 0 0 0 0 0 0 0 0
0 0 0 0 0 0 0 0 0 0 0 0 0 0 0 0 0 0 0 0 0 0 0 0 0 0 0 0 0 0 0 0 0 0 0 0 0 0 0 0 0 0 0
0 0 0 0 0 0 0 0 0 0 0 0 0 0 0 0 0 0 0 0 0 0 0 0 0 0 0 0 0 0 0 0 0 0 0 0 0 0 0 0 0 0 0
0 0 0 0 0 0 0 0 0 0 0 0 0 0 0 0 0 0 0 0 0 0 0 0 0 0 0 0 0 0 0 0 0 0 0 0 0 0 0 0 0 0 0
0 0 0 0 0 0 0 0 0 0 0 0 0 0 0 0 0 0 0 0 0 0 0 0 0 0 0 0 0 0 0 0 0 0 0 0 0 0 0 0 0 0 0
0 0 0 0 0 0 0 0 0 0 0 0 0 0 0 0 0 0 0 0 0 0 0 0 0 0 0 0 0 0 0 0 0 0 0 0 0 0 0 0 0 0 0
0 0 0 0 0 0 0 0 0 0 0 0 0 0 0 0 0 0 0 0 0 0 0 0 0 0 0 0 0 0 0 0 0 0 0 0 0 0 0 0 0 0 0
0 0 0 0 0 0 0 0 0 0 0 0 0 0 0 0 0 0 0 0 0 0 0 0 0 0 0 0 0 0 0 0 0 0 0 0 0 0 0 0 0 0 0
0 0 0 0 0 0 0 0 0 0 0 0 0 0 0 0 0 0 0 0 0 0 0 0 0 0 0 0 0 0 0 0 0 0 0 0 0 0 0 0 0 0 0
Wind_Speed
1 1 1 1 1 1 1 2 2 2 2 3 3 3 3 3 3 3 1 1 3 5 6 6 6 6 6 6 6 6 6 6 7 6 6 7 7 8 9 10 10 11 12
1 1 1 1 2 2 2 2 2 2 2 2 3 3 3 3 3 3 3 1 1 3 5 6 6 5 5 5 5 4 4 4 5 6 7 7 7 8 9 9 10 10 11
2 1 1 1 2 2 3 2 2 2 2 2 3 3 3 3 3 3 3 3 2 1 2 4 4 4 5 5 5 5 4 5 5 6 6 7 8 8 9 9 10 10 10
2 2 1 1 2 2 2 2 2 2 2 2 3 2 2 2 3 3 3 3 3 2 1 1 3 4 5 5 5 6 6 6 6 6 7 7 7 8 9 10 10 10 10
2 2 2 2 2 2 2 2 2 2 2 2 3 3 2 2 2 3 3 3 3 3 3 1 1 3 4 5 6 6 7 7 7 7 7 7 8 8 9 10 10 10 10
3 2 2 2 2 2 2 2 3 2 2 2 3 3 2 2 2 2 2 2 2 3 3 3 2 1 2 4 6 7 8 8 8 8 7 8 8 8 9 9 10 10 10
3 3 2 3 3 2 2 3 3 3 2 2 2 2 2 2 2 1 2 2 2 2 3 3 3 3 2 2 4 7 8 9 9 9 8 9 9 9 9 9 9 9 9
3 2 2 2 3 2 3 3 3 2 2 2 2 3 2 3 2 2 1 1 2 2 2 3 3 3 3 3 3 5 8 9 10 10 9 10 10 10 10 9 9 8 9
2 2 2 2 2 2 3 3 3 3 2 1 2 3 3 3 3 2 2 2 2 2 2 3 3 3 4 3 3 4 6 8 10 11 11 10 10 10 10 9 9 9 8
1 1 1 2 2 2 2 3 3 3 3 2 2 2 3 3 4 3 2 2 3 3 3 3 3 3 4 3 3 5 7 8 9 10 11 11 10 10 9 9 9 8 8
0 1 1 1 2 2 2 2 3 2 2 3 2 2 3 3 4 4 5 4 3 3 3 4 3 3 3 3 3 5 6 7 9 10 10 10 10 9 9 10 9 8 8
0 1 1 1 2 2 2 3 3 3 3 3 3 3 3 3 3 4 6 6 6 4 4 4 4 4 3 4 3 6 7 8 9 10 11 10 10 9 9 9 9 8 8
1 2 2 2 2 2 3 3 3 3 3 3 3 3 3 3 4 4 5 6 6 5 4 3 3 3 3 4 3 5 6 7 8 9 9 9 9 9 9 9 9 9 9
2 2 3 2 2 3 3 3 3 3 3 3 4 4 3 3 4 4 4 5 6 5 5 5 3 3 3 4 4 6 5 6 8 9 9 9 9 8 8 8 8 8 8
2 3 3 3 3 3 3 3 3 3 4 4 4 4 4 3 3 4 4 4 5 6 6 4 3 3 4 4 5 5 6 6 8 9 9 8 8 8 8 8 8 8 8
3 4 4 4 4 4 4 4 4 4 4 4 4 4 4 4 3 4 4 4 5 6 6 4 4 5 5 5 5 6 6 7 8 8 9 8 8 8 8 7 7 7 8
4 5 5 5 5 5 5 4 5 5 5 5 5 5 6 5 4 4 4 4 5 5 7 6 5 5 6 7 6 6 6 6 5 7 8 9 8 8 8 7 7 7 8
5 6 6 6 6 6 5 6 6 6 6 6 6 6 6 4 6 5 4 5 5 5 6 8 6 5 6 7 7 7 6 5 6 6 8 8 8 8 8 7 7 7 7
6 6 6 7 6 6 6 6 7 7 7 7 7 7 7 6 7 5 6 5 5 5 5 7 6 5 5 5 7 6 7 6 6 5 7 7 7 8 8 7 7 7 7
7 7 7 7 7 7 7 7 7 8 8 7 7 7 7 7 7 7 6 6 6 6 6 6 6 5 5 5 5 5 5 5 5 5 5 6 7 8 8 8 7 7 7
7 7 7 7 7 7 7 7 7 8 8 8 8 8 8 8 9 8 6 6 6 6 5 6 6 5 5 4 5 4 6 5 6 4 5 5 5 5 4 6 7 7 7
7 7 8 8 8 7 8 10 9 8 8 9 9 8 8 8 9 11 11 10 9 8 7 6 6 7 7 6 5 5 5 5 5 2 5 5 4 5 4 4 5 7 8
7 8 8 8 9 9 9 12 12 9 9 9 9 8 7 6 8 8 9 10 11 12 11 9 9 9 7 6 6 6 6 6 6 4 4 5 4 5 3 3 6 7 8
7 8 8 9 9 9 10 12 12 11 10 10 9 9 9 8 7 8 7 8 8 8 9 8 8 8 7 6 6 6 7 7 7 4 3 5 4 4 4 4 4 6 7
7 8 8 8 9 9 10 11 11 8 8 10 9 9 9 9 9 9 8 8 8 7 6 8 9 8 8 8 6 5 5 5 5 3 2 4 4 4 5 4 3 5 7
8 7 8 8 9 10 9 11 11 7 8 8 7 8 10 11 10 10 9 8 9 8 6 6 6 7 7 7 7 6 5 5 4 4 2 3 3 3 4 3 3 3 4
Wind_Direction
69 44 17 10 350 337 319 310 298 313 306 308 303 300 295 287 281 275 251 141 297 299 295 290 287 287 287 286 287 282 275 269 269 267 268 270 273 271 270 269 268 265 263
48 23 8 359 352 337 321 303 310 308 304 303 303 300 296 290 283 285 291 234 218 295 303 299 298 297 298 300 301 303 299 297 291 282 277 275 275 274 272 272 273 271 269
32 8 2 357 344 333 325 312 318 302 300 296 291 299 301 299 292 292 294 296 281 245 289 301 304 308 310 309 310 310 308 305 300 299 292 284 279 276 273 271 272 273 273
36 20 2 358 343 331 329 327 317 305 301 298 301 305 296 293 290 298 296 294 294 293 267 306 309 316 317 316 314 315 314 312 307 301 297 295 293 285 279 276 274 274 275
37 34 9 355 341 334 338 337 321 313 306 308 307 300 295 288 285 290 294 300 301 302 301 321 288 309 315 315 316 314 312 310 306 302 299 295 293 291 287 283 281 277 278
37 30 18 0 348 338 340 338 329 320 308 307 298 292 284 279 272 285 296 305 318 312 309 308 290 282 293 307 313 312 310 307 306 302 300 300 298 296 292 287 285 283 282
33 31 18 6 356 346 338 334 330 316 322 319 287 279 260 255 261 285 308 315 324 321 317 314 312 308 303 297 307 310 309 307 306 304 303 300 297 298 295 292 290 286 285
28 17 14 5 359 344 337 342 338 319 322 333 305 288 269 230 207 277 280 305 313 317 321 325 325 318 311 308 333 326 316 309 309 309 308 303 298 296 293 292 292 294 293
34 12 3 354 350 344 342 336 328 313 301 302 310 294 289 288 308 239 263 282 298 304 307 312 313 312 309 306 309 325 322 312 309 310 308 306 304 299 295 293 294 296 299
28 19 348 339 336 328 327 329 319 304 292 283 290 294 296 304 286 283 254 263 286 294 299 301 304 308 308 305 314 329 326 317 310 307 305 305 307 305 302 299 300 304 304
22 5 327 324 321 309 310 310 312 303 294 291 288 284 276 277 274 279 284 289 283 281 294 296 294 294 297 300 307 334 325 319 316 314 312 311 314 314 313 311 308 307 309
297 315 301 304 306 301 300 301 298 293 289 289 286 281 277 274 276 274 279 290 293 292 290 288 289 292 297 298 314 335 318 312 312 312 311 311 314 315 316 316 315 310 307
285 292 282 284 288 287 288 290 287 283 279 278 277 276 277 276 282 280 280 285 288 289 278 271 277 290 299 301 304 320 305 315 313 311 313 317 319 319 315 311 311 316 318
267 276 271 272 276 278 278 277 276 277 277 272 271 272 272 274 273 268 273 283 287 279 269 272 277 283 296 298 315 303 298 313 316 315 314 316 319 318 315 310 311 312 315
263 264 265 270 272 270 271 273 270 273 275 274 273 270 268 268 269 268 266 267 277 287 285 284 286 290 303 302 309 297 297 314 310 309 306 308 311 311 310 309 312 313 315
250 254 257 261 264 264 263 262 265 266 267 271 274 272 271 270 266 264 262 260 259 270 280 290 289 299 300 295 301 296 298 304 296 299 299 299 300 302 304 307 308 310 312
251 252 253 253 254 255 255 254 257 260 262 266 266 267 269 272 270 267 264 263 260 261 272 282 284 293 293 292 293 292 293 291 290 295 296 293 292 295 298 300 304 305 305
248 248 250 249 250 252 252 252 255 255 257 260 262 263 266 267 266 267 264 263 264 263 271 280 283 284 285 291 294 293 292 288 287 293 291 287 285 290 291 292 297 301 306
247 245 245 247 248 248 249 251 254 255 256 259 261 261 263 263 262 263 264 265 265 267 266 274 281 283 283 287 292 289 287 286 287 289 284 278 276 282 281 284 291 296 301
249 248 248 248 249 248 248 249 252 255 256 257 258 257 258 257 261 263 263 264 266 266 264 268 274 281 282 285 284 286 288 286 287 287 280 279 274 271 271 276 280 285 289
252 253 253 251 249 248 246 247 251 254 257 258 256 254 255 256 261 261 262 263 262 261 263 266 271 276 275 278 276 280 285 291 282 278 285 280 275 268 266 266 266 274 279
257 255 253 253 252 249 244 246 253 257 256 257 259 257 255 250 251 253 256 259 259 259 260 262 266 268 273 276 278 277 285 289 282 279 292 286 280 274 275 276 283 280 277
259 258 257 256 257 255 248 250 249 256 257 257 258 258 256 252 251 255 254 253 252 253 256 262 266 267 273 274 275 273 272 275 279 297 295 281 276 276 278 281 288 278 279
261 260 259 258 259 258 250 251 252 253 256 257 256 256 256 256 249 253 259 259 259 255 249 250 259 267 272 276 268 272 277 278 277 272 269 274 284 283 285 272 271 283 287
263 261 261 259 259 260 248 250 250 255 255 256 256 254 253 255 250 246 252 257 261 261 253 249 258 265 271 271 270 267 264 267 271 258 242 269 286 293 286 271 260 276 286
265 267 263 260 260 262 256 249 247 251 256 259 258 254 247 249 252 245 247 251 255 258 255 255 254 255 258 258 255 254 258 259 267 267 223 258 280 299 291 271 273 279 279